Regional Weather Roundup
Issued by NWS Wakefield, VA

Home | Current Version | Previous Version | Text Only | Print | Product List | Glossary Off
Versions: 1 2 3 4 5 6 7 8 9 10 11 12 13 14 15 16 17 18 19 20 21 22 23 24 25 26 27 28 29 30 31 32 33 34 35 36 37 38 39 40 41 42 43 44 45 46 47 48 49 50

000
ASUS41 KAKQ 250615
RWRAKQ

REGIONAL WEATHER ROUNDUP
NATIONAL WEATHER SERVICE WAKEFIELD VA
200 AM EDT WED MAY 25 2016

Note: "fair" indicates few or no clouds below 12,000 feet with no
significant weather and/or obstructions to visibility. * = Denotes
station may not report precipitation (e.g., rain,snow,etc.),
thunder or fog.

VAZ042-051-052>054-056-250700-
NORTHERN VIRGINIA

CITY           SKY/WX    TMP DP  RH WIND       PRES   REMARKS
WASH NATIONAL  FAIR      63  57  81 S7        30.07S
DULLES         FAIR      57  53  86 SE3       30.08S
FORT BELVOIR   FAIR      55  54  94 CALM      30.07S
QUANTICO       FAIR      61  57  87 NW5       30.09S
FREDERICKSBRG* FAIR      59  59 100 CALM      30.08S
STAFFORD*      FAIR      55  53  95 NW3       30.13S
WARRENTON      FAIR      57  52  84 CALM      30.09S
CULPEPER*      FAIR      56  55  99 CALM      30.10S
MANASSAS*      FAIR      55  55 100 CALM      30.09S
LEESBURG*      FAIR      61  55  82 W3        30.09S
WINCHESTER     FAIR      61  50  67 SW3       30.10S
FRONT ROYAL*   FAIR      57  52  82 S3        30.11R
LURAY*         FAIR      54  54 100 CALM      30.14R
$$

VAZ048-049-060>072-079>083-250700-
CENTRAL AND SOUTH CENTRAL VIRGINIA

CITY           SKY/WX    TMP DP  RH WIND       PRES   REMARKS
RICHMOND       FAIR      63  56  78 SW3       30.09S
CHESTERFIELD*  MOCLDY    64  48  55 CALM      30.12R
PETERSBURG*    FAIR      65  57  74 SW5       30.11S
HANOVER        FAIR      59  56  89 CALM      30.11S
TAPPAHANNOCK*  FAIR      59  59 100 CALM      30.10S
QUINTON*       FAIR      60  59  97 MISG      30.10S
CHARLOTTSVILLE FAIR      61  52  72 CALM      30.11S
GORDONSVILLE*  FAIR      56  55  95 W6        30.10S
ORANGE*        FAIR      59  55  88 CALM      30.12S
LOUISA*        FAIR      57  57 100 CALM      30.10R
BUMPASS*       FAIR      58  56  95 CALM      30.10S
FARMVILLE*     FAIR      61  57  87 CALM      30.11S
CREWE*         FAIR      65  57  76 W5        30.11R
FORT PICKETT*  NOT AVBL
CHASE CITY*    FAIR      60  59  94 CALM      30.14R
CLARKSVILLE*   FAIR      57  57 100 SW3       30.13R
SOUTH HILL*    FAIR      62  55  78 SW5       30.18S
LAWRENCEVILLE* FAIR      59  56  92 CALM      30.12S
EMPORIA*         N/A     57  55  94 CALM      30.13S
$$

VAZ088>098-250700-
SOUTHEAST VIRGINIA

CITY           SKY/WX    TMP DP  RH WIND       PRES   REMARKS
NORFOLK        FAIR      65  55  70 SW8       30.10S
VIRGINIA BEACH FAIR      68  55  63 SW8       30.10S
NORFOLK NAVAL  FAIR      69  55  60 SW7       30.11S
WEST POINT*    FAIR      61  58  90 CALM      30.11S
SALUDA*        FAIR      67  59  75 CALM      30.08S
NEWPORT NEWS   MOCLDY    67  57  70 W5        30.10S
LANGLEY AFB    FAIR      68  57  67 SW8       30.09F
FORT EUSTIS    MOCLDY    65  56  73 CALM      30.08S
WILLIAMSBURG*  FAIR      68  57  68 W5        30.11S
HR EXEC AP*    MOCLDY    64  59  82 SW7       30.13S
FRANKLIN*      FAIR      62  56  82 CALM      30.12S
US460-WAKEFLD  MOCLDY    64  56  75 CALM      30.11S
$$

VAZ020-022-025-037-045-250700-
WEST CENTRAL AND SOUTHWEST VIRGINIA

CITY           SKY/WX    TMP DP  RH WIND       PRES   REMARKS
STAUNTON*      FAIR      52  50  93 CALM      30.17S
WAYNESBORO*    FAIR      55  48  77 SW5       30.16S
HOT SPRINGS VA FAIR      60  46  59 NW7       30.23S
LYNCHBURG      FAIR      56  54  93 CALM      30.15S
DANVILLE       FAIR      56  55  97 CALM      30.15R
SOUTH BOSTON*  MOCLDY    56  55  96 CALM      30.14R
MARTINSVILLE   FAIR      50  50  99 CALM      30.19R
ROANOKE        FAIR      57  52  83 NW3       30.18S
BLACKSBURG     FAIR      52  50  93 CALM      30.23S
DUBLIN*        FAIR      57  52  83 CALM      30.21S
MARION*        FAIR      53  50  90 W3        30.26R
HILLSVILLE*    FAIR      57  49  75 SW5       30.22S
RICHLANDS*     FAIR      62  40  45 CALM      30.24R
WISE*          FAIR      61  41  48 CALM      30.24S
ABINGDON*      FAIR      55  51  85 CALM      30.23R
$$

MDZ021>025-VAZ099-100-250700-
SOUTHERN MARYLAND AND THE DELMARVA PENINSULA

CITY           SKY/WX    TMP DP  RH WIND       PRES   REMARKS
PATUXENT RIVER CLEAR     67  54  63 SW9       30.06S
BAY BRIDGE APT CLEAR     68  54  60 W5        30.05S
LEONARDTOWN    CLEAR     61  54  77 CALM      30.08S
DOVER          CLEAR     65  56  72 SW8       30.02S
GEORGETOWN     CLEAR     67  54  63 SW7       30.05S
EASTON         CLEAR     65  60  83 CALM      30.09S
CAMBRIDGE        N/A     57  55  94 CALM      30.05F
SALISBURY      CLEAR     61  54  77 CALM      30.06S
OCEAN CITY     CLEAR     66  53  63 W9        30.05S
WALLOPS ISLAND FAIR      69  55  60 SW9       30.07S
ACCOMACK*      FAIR      64  54  68 SW6       30.08S
$$

NCZ012>017-030>032-250700-
NORTH CENTRAL AND EASTERN NORTH CAROLINA

CITY           SKY/WX    TMP DP  RH WIND       PRES   REMARKS
ROANOKE RAPIDS FAIR      59  55  88 SW5       30.13S
RALEIGH        PTCLDY    62  56  80 CALM      30.15S
ELIZABETH CITY CLEAR     64  60  87 SW7       30.13S
AHOSKIE*       MOCLDY    60  55  83 CALM      30.14S
EDENTON*       CLEAR    N/A N/A N/A W3        30.14S
CURRITUCK*     CLEAR     65  60  84 SW3       30.13S
KILL DEVIL HLS CLEAR     67  59  75 SW8       30.12F
MANTEO         CLEAR     66  62  87 W7        30.14F
CAPE HATTERAS  CLEAR     67  62  84 W8        30.15F
TARBORO*       FAIR      57  56  96 CALM      30.15S
GOLDSBORO      CLEAR     64  62  91 SW5       30.15S
WASHINGTON     CLEAR     64  58  79 SW5       30.15F
GREENVILLE     CLEAR     64  59  82 SW7       30.16S
NEW BERN       CLEAR     63  55  75 SW5       30.17F
WILMINGTON     CLEAR     65  59  81 SW6       30.17F
$$

VAZ048-250700-
ELSEWHERE

CITY           SKY/WX    TMP DP  RH WIND       PRES   REMARKS
HARRISBURG PA  PTCLDY    62  51  67 NW7       30.04S
BALTIMORE      CLEAR     60  49  66 W7        30.05R
ANNAPOLIS      CLEAR     64  51  62 NW3       30.05R
ANDREWS AFB    NOT AVBL
PHILADELPHIA   PTCLDY    63  53  70 CALM      30.03S
HENDERSON NC   CLEAR     59  53  82 SW3       30.14S
GREENSBORO     PTCLDY    65  53  65 S3        30.16R
ROCKY MOUNT    CLEAR     60  56  86 CALM      30.14S
$$

VAZ100-250700-
MARINE

STATION/POSITION TIME  TEMP    WIND        PRES    WAVE   SWELL
                       AIR SEA DIR/SP/G            HT/PER HT/PER
                 (UTC) (F)     (DEG/KT/KT) (MB)    (FT/S) (FT/S)
BRANDYWINE LGT   0500   66     250/ 19/ 19 1016.6F
CAPE MAY NJ      0500   63 65  250/ 12/ 13 1016.3R
LEWES DE         0500   69 61  250/ 10/ 12 1016.9R
15NM E FENWICK I 0550   60 57              1017.2S   2/10
OCEAN-CITY-INLET 0500   66 60  260/  8/  9 1016.9R
WACHAPREAGUE VA  0500   68 68  240/  3/  5 1018.2S
THOMAS POINT MD  0600   70 63  280/ 10/ 10 1018.8S
GOOSES REEF MD   0600   67 65  250/  6/  6 1018.8S   0
COVE POINT MD    0500   71     270/ 12/ 13 1018.4R
SOLOMONS ISLAND  0512   65 63  280/  2/  4   N/A
BISHOPS HEAD MD  0500   67 68  210/  8/  9 1018.1S
PINEY POINT MD   0500          300/  2/  3   N/A
POTOMAC MD       0600   66 64  300/  2/  6 1017.3F   0
CAMBRIDGE MD     0500   67 63  230/  4/  5 1016.9R
LEWISETTA VA     0500   69 66  250/  8/  9 1018.0R
RAPPAHANNOCK LGT 0500          190/ 11/ 12 1019.2S
STINGRAY PT      0500   68 65  230/  8/ 10 1018.9S   0
YORK RVR RNG VA  0500   71     250/ 12/ 13 1018.3S
YORKTOWN VA      0500   70 65  230/  9/ 11 1018.7R
JAMESTOWN VA     0600   68 67  330/  2/  4   N/A     0
DOMINION TERM VA 0500   68     220/  5/  6 1019.4R
KIPTOPEKE VA     0500      66  190/  5/  7   N/A
CHES BAY BRIDGE  0500   71 63  200/ 11/ 12 1019.1R
CAPE HENRY VA    0500   71     210/  8/ 10   N/A
CHESAPEAKE LGHT  0500   71     230/ 14/ 14 1019.8R
WILLOUBY STN VA  0500   70     230/ 10/ 10 1020.1R
CAPE HENRY BUOY  0512      62                N/A     2/ 8
1ST LANDING BUOY 0600   67 65  210/  8/ 10 1019.0F   1
CAPE CHARLES BUO 0526      63                N/A     1/11   2/11
OFFSHORE WE BUOY 0521      60                N/A     2/ 8   2/ 8
64NM E OF VA BCH 0550   61 56  230/ 12/ 14 1019.2S   3/ 5   2/ 5
DUCK PIER NC     0500   69 62  230/ 11/ 15 1019.6R
44100 DUCK FRF   0524      61                N/A     2/10
44056 DUCK FRF   0511      62                N/A     2/11
OREGON INLET NC  0500   69 70  230/ 12/ 16 1020.4R
HATTERAS NC      0500   67 68  220/  7/ 10 1020.6F
DIAMOND SHLS NC  0550   71 71  250/ 12/ 14 1021.0R   3/ 9   2/ 9
CAPE LOOKOUT NC  C1F1C2F2C3F3C4F4C5F5C6F6C7F7C8M1C9!


USA.gov is the U.S. government's official web portal to all federal, state and local government web resources and services.